Regional Weather Roundup
Issued by NWS

Home | Current Version | Previous Version | Text Only | Print | Product List | Glossary Off
Versions: 1 2 3 4 5 6 7 8 9 10 11 12 13 14 15 16 17 18 19 20 21 22 23 24 25 26 27 28 29 30 31 32 33 34 35 36 37 38 39 40 41 42 43 44 45 46 47 48 49 50

000
ASUS43 KDTX 302310
RWRMI
MICHIGAN HOURLY REGIONAL WEATHER ROUNDUP
NATIONAL WEATHER SERVICE DETROIT/PONTIAC MI
700 PM EDT WED JUL 30 2014

NOTE: "FAIR" INDICATES FEW OR NO CLOUDS BELOW 12,000 FEET WITH NO
SIGNIFICANT WEATHER AND/OR OBSTRUCTION TO VISIBILITY.

MIZ047>049-052>055-059>063-066>070-074>076-081>083-310000-
SOUTHEAST LOWER MICHIGAN

CITY           SKY/WX    TMP DP  RH WIND       PRES   REMARKS
ADRIAN         MOSUNNY   68  60  75 N3        29.99S
ALMA           PTSUNNY   74  45  35 W5        29.96S
ANN ARBOR      PTSUNNY   72  54  53 N7        29.98R
BAD AXE        MOSUNNY   65  56  74 E5        29.97S
CARO           MOSUNNY   73  52  46 SW3       29.95F
DETROIT CITY   LGT RAIN  73  54  51 NW14G23   29.97R
DETROIT        TSTM      68  57  68 NW13      29.99R
FLINT          PTSUNNY   72  56  57 CALM      29.97F
GROSSE ILE     PTSUNNY   72  61  68 SE6       29.94F
HILLSDALE      SUNNY     72  57  60 NW6       29.99F
HOWELL         CLOUDY    66  55  68 W5        29.99R

CITY           SKY/WX    TMP DP  RH WIND       PRES   REMARKS
JACKSON        MOSUNNY   70  58  65 VRB5      29.98S
LAMBERTVILLE   CLOUDY    68  55  64 NW14G29   30.00R
LANSING        MOSUNNY   70  56  61 CALM      29.98F
LAPEER         CLOUDY    71  50  46 W6        29.98S
MASON          PTSUNNY   64  57  77 CALM      29.98F
MONROE         PTSUNNY   73  59  60 W3        29.96R
MT. CLEMENS    TSTM      66  59  77 W12       29.97R
PONTIAC        PTSUNNY   67  58  72 NW3       29.97F
PORT HOPE        N/A     64  55  72 E8        29.97S
PORT HURON     PTSUNNY   68  57  68 NE7       29.97S
TRI CITIES     SUNNY     75  49  39 W10       29.96S
TROY           LGT RAIN  65  59  80 CALM      29.99S
SAGINAW HB     SUNNY     73  43  33 W6        29.95S
$$
MIZ043>046-050>051-056>058-064>065-071>073-077>080-310000-
SOUTHWEST LOWER MICHIGAN

CITY           SKY/WX    TMP DP  RH WIND       PRES   REMARKS
BATTLE CREEK   MOSUNNY   73  56  54 W10       30.00S
BENTON HARBOR  SUNNY     65  58  78 VRB6      30.01F
BIG RAPIDS     SUNNY     70  44  39 NW13G24   29.98S
COLDWATER      SUNNY     74  54  49 W12G17    29.99S
FREMONT        FAIR      70  43  37 NW12G17   30.00R
HOLLAND        SUNNY     67  52  58 W8        30.02F
GRAND RAPIDS   MOSUNNY   73  49  42 W15       29.99S
IONIA          FAIR      73  51  47 W12G21    29.97S
KALAMAZOO      SUNNY     73  57  57 W10       30.00S
LUDINGTON      SUNNY     67  54  63 NW3       30.02S
MARSHALL       MOSUNNY   72  56  57 W14       29.98S
MOUNT PLEASANT SUNNY     74  47  39 W8        29.96S
MUSKEGON       MOSUNNY   71  49  45 NW8       30.00F
SOUTH HAVEN    SUNNY     63  59  88 NW5       30.02S
$$
MIZ016>042-310000-
NORTHERN LOWER MICHIGAN

CITY           SKY/WX    TMP DP  RH WIND       PRES   REMARKS
ALPENA         PTSUNNY   63  53  70 CALM      29.98R
BEAVER ISLAND  PTSUNNY   62  55  78 W6        29.99S
BELLAIRE       MOSUNNY   65  49  56 CALM      29.98S
CADILLAC       SUNNY     66  50  55 W13       29.99S
CHARLEVOIX     PTSUNNY   63  55  75 W7        30.01S
FRANKFORT      SUNNY     64  53  67 W3        30.00S
GAYLORD        PTSUNNY   64  45  49 NW6       29.99S
GRAYLING       MOSUNNY   69  48  46 NW9G16    29.99S
HARBOR SPRINGS PTSUNNY   63  51  64 SW3       29.98F
HOUGHTON LAKE  MOSUNNY   69  51  52 NW13      29.98R
MANISTEE       SUNNY     64  46  52 NW5       30.01F
OSCODA         PTSUNNY   64  53  67 SE6       29.96S
PELLSTON       PTSUNNY   65  52  62 W8        29.98S
ROGERS CITY    CLOUDY    63  55  77 NW7       29.98S
TRAVERSE CITY  PTSUNNY   69  47  45 N8        29.97F
$$
MIZ007>008-015-310000-
EASTERN UPPER MICHIGAN

CITY           SKY/WX    TMP DP  RH WIND       PRES   REMARKS
KINROSS        CLOUDY    55  54  94 CALM      29.97F
MACKINAC ISLAN LGT RAIN  59  55  86 W6        29.97F
NEWBERRY       CLOUDY    59  51  75 SW5       29.96F
S. S. MARIE    CLOUDY    58  50  75 CALM      29.96F
MUNISING         N/A     61  56  83 SW7       29.94F
$$
MIZ004>006-011>014-085-310000-
CENTRAL UPPER MICHIGAN

CITY           SKY/WX    TMP DP  RH WIND       PRES   REMARKS
MANISTIQUE     CLOUDY    57  55  94 CALM      29.97F
ESCANABA       CLOUDY    64  52  63 S9        29.96S
MENOMINEE      MOSUNNY   70  52  52 SW10      29.95F
SAWYER-GWINN   MOSUNNY   55  52  88 S3        29.99F
$$
MIZ001>003-009>011-084-310000-
WESTERN UPPER MICHIGAN

CITY           SKY/WX    TMP DP  RH WIND       PRES   REMARKS
IRON MOUNTAIN  LGT RAIN  61  56  83 N3        29.98R
HOUGHTON       PTSUNNY   64  53  67 W12       29.94F
COPPER HARBOR    N/A     67  51  56 NW6       29.93F
$$

ABBREVIATIONS USED IN REMARKS
   TC - TEMPERATURE IN CELSIUS
  WCI - WIND CHILL INDEX
   HX - HEAT INDEX
  VSB - VISIBILITY



USA.gov is the U.S. government's official web portal to all federal, state and local government web resources and services.